Year,Month,Day,Hour,Minute,Value (Times are PST for temperature in C)
2016,06,28,00,00,18.20
2016,06,28,00,01,18.20
2016,06,28,00,02,18.20
2016,06,28,00,03,18.10
2016,06,28,00,04,18.10
2016,06,28,00,05,18.10
2016,06,28,00,06,18.10
2016,06,28,00,07,18.00
2016,06,28,00,08,18.00
2016,06,28,00,09,18.00
2016,06,28,00,10,18.00
2016,06,28,00,11,17.90
2016,06,28,00,12,17.90
2016,06,28,00,13,17.90
2016,06,28,00,14,17.90
2016,06,28,00,15,17.90
2016,06,28,00,16,17.90
2016,06,28,00,17,17.80
2016,06,28,00,18,17.80
2016,06,28,00,19,17.80
2016,06,28,00,20,17.80
2016,06,28,00,21,17.70
2016,06,28,00,22,17.70
2016,06,28,00,23,17.70
2016,06,28,00,24,17.70
2016,06,28,00,25,17.70
2016,06,28,00,26,17.60
2016,06,28,00,27,17.60
2016,06,28,00,28,17.60
2016,06,28,00,29,17.60
2016,06,28,00,30,17.60
2016,06,28,00,31,17.60
2016,06,28,00,32,17.50
2016,06,28,00,33,17.50
2016,06,28,00,34,17.50
2016,06,28,00,35,17.40
2016,06,28,00,36,17.40
2016,06,28,00,37,17.40
2016,06,28,00,38,17.30
2016,06,28,00,39,17.30
2016,06,28,00,40,17.30
2016,06,28,00,41,17.30
2016,06,28,00,42,17.30
2016,06,28,00,43,17.30
2016,06,28,00,44,17.30
2016,06,28,00,45,17.30
2016,06,28,00,46,17.30
2016,06,28,00,47,17.30
2016,06,28,00,48,17.30
2016,06,28,00,49,17.30
2016,06,28,00,50,17.30
2016,06,28,00,51,17.30
2016,06,28,00,52,17.30
2016,06,28,00,53,17.30
2016,06,28,00,54,17.30
2016,06,28,00,55,17.40
2016,06,28,00,56,17.40
2016,06,28,00,57,17.40
2016,06,28,00,58,17.40
2016,06,28,00,59,17.40
2016,06,28,01,00,17.40
2016,06,28,01,01,17.40
2016,06,28,01,02,17.50
2016,06,28,01,03,17.50
2016,06,28,01,04,17.50
2016,06,28,01,05,17.50
2016,06,28,01,06,17.50
2016,06,28,01,07,17.60
2016,06,28,01,08,17.60
2016,06,28,01,09,17.60
2016,06,28,01,10,17.60
2016,06,28,01,11,17.60
2016,06,28,01,12,17.70
2016,06,28,01,13,17.70
2016,06,28,01,14,17.70
2016,06,28,01,15,17.80
2016,06,28,01,16,17.80
2016,06,28,01,17,17.80
2016,06,28,01,18,17.90
2016,06,28,01,19,18.00
2016,06,28,01,20,18.00
2016,06,28,01,21,18.10
2016,06,28,01,22,18.10
2016,06,28,01,23,18.10
2016,06,28,01,24,18.20
2016,06,28,01,25,18.20
2016,06,28,01,26,18.30
2016,06,28,01,27,18.30
2016,06,28,01,28,18.30
2016,06,28,01,29,18.40
2016,06,28,01,30,18.40
2016,06,28,01,31,18.40
2016,06,28,01,32,18.40
2016,06,28,01,33,18.40
2016,06,28,01,34,18.30
2016,06,28,01,35,18.30
2016,06,28,01,36,18.30
2016,06,28,01,37,18.30
2016,06,28,01,38,18.30
2016,06,28,01,39,18.30
2016,06,28,01,40,18.30
2016,06,28,01,41,18.20
2016,06,28,01,42,18.20
2016,06,28,01,43,18.20
2016,06,28,01,44,18.20
2016,06,28,01,45,18.20
2016,06,28,01,46,18.20
2016,06,28,01,47,18.20
2016,06,28,01,48,18.20
2016,06,28,01,49,18.30
2016,06,28,01,50,18.30
2016,06,28,01,51,18.40
2016,06,28,01,52,18.40
2016,06,28,01,53,18.40
2016,06,28,01,54,18.40
2016,06,28,01,55,18.50
2016,06,28,01,56,18.50
2016,06,28,01,57,18.50
2016,06,28,01,58,18.50
2016,06,28,01,59,18.50
2016,06,28,02,00,18.60
2016,06,28,02,01,18.60
2016,06,28,02,02,18.60
2016,06,28,02,03,18.70
2016,06,28,02,04,18.70
2016,06,28,02,05,18.70
2016,06,28,02,06,18.70
2016,06,28,02,07,18.70
2016,06,28,02,08,18.70
2016,06,28,02,09,18.70
2016,06,28,02,10,18.60
2016,06,28,02,11,18.50
2016,06,28,02,12,18.50
2016,06,28,02,13,18.40
2016,06,28,02,14,18.30
2016,06,28,02,15,18.30
2016,06,28,02,16,18.20
2016,06,28,02,17,18.10
2016,06,28,02,18,18.00
2016,06,28,02,19,17.90
2016,06,28,02,20,17.80
2016,06,28,02,21,17.70
2016,06,28,02,22,17.70
2016,06,28,02,23,17.60
2016,06,28,02,24,17.60
2016,06,28,02,25,17.50
2016,06,28,02,26,17.40
2016,06,28,02,27,17.40
2016,06,28,02,28,17.40
2016,06,28,02,29,17.30
2016,06,28,02,30,17.30
2016,06,28,02,31,17.30
2016,06,28,02,32,17.20
2016,06,28,02,33,17.20
2016,06,28,02,34,17.20
2016,06,28,02,35,17.10
2016,06,28,02,36,17.10
2016,06,28,02,37,17.10
2016,06,28,02,38,17.10
2016,06,28,02,39,17.10
2016,06,28,02,40,17.00
2016,06,28,02,41,17.00
2016,06,28,02,42,16.90
2016,06,28,02,43,16.90
2016,06,28,02,44,16.90
2016,06,28,02,45,16.80
2016,06,28,02,46,16.80
2016,06,28,02,47,16.80
2016,06,28,02,48,16.70
2016,06,28,02,49,16.70
2016,06,28,02,50,16.70
2016,06,28,02,51,16.70
2016,06,28,02,52,16.70
2016,06,28,02,53,16.60
2016,06,28,02,54,16.60
2016,06,28,02,55,16.60
2016,06,28,02,56,16.50
2016,06,28,02,57,16.50
2016,06,28,02,58,16.40
2016,06,28,02,59,16.40
2016,06,28,03,00,16.40
2016,06,28,03,01,16.30
2016,06,28,03,02,16.30
2016,06,28,03,03,16.20
2016,06,28,03,04,16.20
2016,06,28,03,05,16.20
2016,06,28,03,06,16.20
2016,06,28,03,07,16.20
2016,06,28,03,08,16.20
2016,06,28,03,09,16.20
2016,06,28,03,10,16.30
2016,06,28,03,11,16.30
2016,06,28,03,12,16.30
2016,06,28,03,13,16.40
2016,06,28,03,14,16.40
2016,06,28,03,15,16.50
2016,06,28,03,16,16.60
2016,06,28,03,17,16.60
2016,06,28,03,18,16.70
2016,06,28,03,19,16.80
2016,06,28,03,20,16.90
2016,06,28,03,21,17.00
2016,06,28,03,22,17.10
2016,06,28,03,23,17.20
2016,06,28,03,24,17.20
2016,06,28,03,25,17.30
2016,06,28,03,26,17.30
2016,06,28,03,27,17.30
2016,06,28,03,28,17.40
2016,06,28,03,29,17.40
2016,06,28,03,30,17.40
2016,06,28,03,31,17.40
2016,06,28,03,32,17.40
2016,06,28,03,33,17.40
2016,06,28,03,34,17.40
2016,06,28,03,35,17.30
2016,06,28,03,36,17.30
2016,06,28,03,37,17.30
2016,06,28,03,38,17.30
2016,06,28,03,39,17.30
2016,06,28,03,40,17.20
2016,06,28,03,41,17.20
2016,06,28,03,42,17.10
2016,06,28,03,43,17.00
2016,06,28,03,44,17.00
2016,06,28,03,45,16.90
2016,06,28,03,46,16.80
2016,06,28,03,47,16.70
2016,06,28,03,48,16.60
2016,06,28,03,49,16.50
2016,06,28,03,50,16.40
2016,06,28,03,51,16.40
2016,06,28,03,52,16.30
2016,06,28,03,53,16.30
2016,06,28,03,54,16.20
2016,06,28,03,55,16.10
2016,06,28,03,56,16.10
2016,06,28,03,57,16.00
2016,06,28,03,58,16.00
2016,06,28,03,59,15.90
2016,06,28,04,00,15.90
2016,06,28,04,01,15.90
2016,06,28,04,02,15.90
2016,06,28,04,03,15.90
2016,06,28,04,04,15.90
2016,06,28,04,05,15.90
2016,06,28,04,06,15.90
2016,06,28,04,07,15.90
2016,06,28,04,08,15.80
2016,06,28,04,09,15.80
2016,06,28,04,10,15.80
2016,06,28,04,11,15.70
2016,06,28,04,12,15.70
2016,06,28,04,13,15.70
2016,06,28,04,14,15.70
2016,06,28,04,15,15.70
2016,06,28,04,16,15.60
2016,06,28,04,17,15.60
2016,06,28,04,18,15.60
2016,06,28,04,19,15.70
2016,06,28,04,20,15.70
2016,06,28,04,21,15.70
2016,06,28,04,22,15.70
2016,06,28,04,23,15.70
2016,06,28,04,24,15.70
2016,06,28,04,25,15.70
2016,06,28,04,26,15.70
2016,06,28,04,27,15.70
2016,06,28,04,28,15.70
2016,06,28,04,29,15.70
2016,06,28,04,30,15.70
2016,06,28,04,31,15.70
2016,06,28,04,32,15.70
2016,06,28,04,33,15.70
2016,06,28,04,34,15.70
2016,06,28,04,35,15.70
2016,06,28,04,36,15.80
2016,06,28,04,37,15.80
2016,06,28,04,38,15.80
2016,06,28,04,39,15.80
2016,06,28,04,40,15.80
2016,06,28,04,41,15.80
2016,06,28,04,42,15.80
2016,06,28,04,43,15.70
2016,06,28,04,44,15.70
2016,06,28,04,45,15.70
2016,06,28,04,46,15.60
2016,06,28,04,47,15.60
2016,06,28,04,48,15.50
2016,06,28,04,49,15.50
2016,06,28,04,50,15.50
2016,06,28,04,51,15.50
2016,06,28,04,52,15.50
2016,06,28,04,53,15.40
2016,06,28,04,54,15.40
2016,06,28,04,55,15.40
2016,06,28,04,56,15.40
2016,06,28,04,57,15.40
2016,06,28,04,58,15.40
2016,06,28,04,59,15.30
2016,06,28,05,00,15.30
2016,06,28,05,01,15.30
2016,06,28,05,02,15.30
2016,06,28,05,03,15.30
2016,06,28,05,04,15.30
2016,06,28,05,05,15.20
2016,06,28,05,06,15.10
2016,06,28,05,07,15.00
2016,06,28,05,08,15.00
2016,06,28,05,09,15.00
2016,06,28,05,10,15.00
2016,06,28,05,11,15.00
2016,06,28,05,12,15.00
2016,06,28,05,13,14.90
2016,06,28,05,14,14.90
2016,06,28,05,15,14.80
2016,06,28,05,16,14.80
2016,06,28,05,17,14.70
2016,06,28,05,18,14.70
2016,06,28,05,19,14.70
2016,06,28,05,20,14.60
2016,06,28,05,21,14.60
2016,06,28,05,22,14.50
2016,06,28,05,23,14.40
2016,06,28,05,24,14.40
2016,06,28,05,25,14.30
2016,06,28,05,26,14.30
2016,06,28,05,27,14.30
2016,06,28,05,28,14.20
2016,06,28,05,29,14.20
2016,06,28,05,30,14.20
2016,06,28,05,31,14.20
2016,06,28,05,32,14.20
2016,06,28,05,33,14.10
2016,06,28,05,34,14.20
2016,06,28,05,35,14.20
2016,06,28,05,36,14.20
2016,06,28,05,37,14.20
2016,06,28,05,38,14.20
2016,06,28,05,39,14.20
2016,06,28,05,40,14.20
2016,06,28,05,41,14.20
2016,06,28,05,42,14.20
2016,06,28,05,43,14.20
2016,06,28,05,44,14.20
2016,06,28,05,45,14.20
2016,06,28,05,46,14.20
2016,06,28,05,47,14.20
2016,06,28,05,48,14.20
2016,06,28,05,49,14.20
2016,06,28,05,50,14.20
2016,06,28,05,51,14.20
2016,06,28,05,52,14.20
2016,06,28,05,53,14.10
2016,06,28,05,54,14.10
2016,06,28,05,55,14.10
2016,06,28,05,56,14.10
2016,06,28,05,57,14.10
2016,06,28,05,58,14.10
2016,06,28,05,59,14.10
2016,06,28,06,00,14.10
2016,06,28,06,01,14.10
2016,06,28,06,02,14.10
2016,06,28,06,03,14.10
2016,06,28,06,04,14.10
2016,06,28,06,05,14.20
2016,06,28,06,06,14.20
2016,06,28,06,07,14.20
2016,06,28,06,08,14.20
2016,06,28,06,09,14.20
2016,06,28,06,10,14.30
2016,06,28,06,11,14.30
2016,06,28,06,12,14.40
2016,06,28,06,13,14.40
2016,06,28,06,14,14.50
2016,06,28,06,15,14.50
2016,06,28,06,16,14.60
2016,06,28,06,17,14.70
2016,06,28,06,18,14.90
2016,06,28,06,19,15.00
2016,06,28,06,20,15.00
2016,06,28,06,21,15.00
2016,06,28,06,22,15.20
2016,06,28,06,23,15.30
2016,06,28,06,24,15.30
2016,06,28,06,25,15.40
2016,06,28,06,26,15.50
2016,06,28,06,27,15.60
2016,06,28,06,28,15.70
2016,06,28,06,29,15.70
2016,06,28,06,30,15.80
2016,06,28,06,31,15.90
2016,06,28,06,32,15.90
2016,06,28,06,33,16.00
2016,06,28,06,34,16.10
2016,06,28,06,35,16.10
2016,06,28,06,36,16.20
2016,06,28,06,37,16.30
2016,06,28,06,38,16.30
2016,06,28,06,39,16.40
2016,06,28,06,40,16.40
2016,06,28,06,41,16.50
2016,06,28,06,42,16.50
2016,06,28,06,43,16.60
2016,06,28,06,44,16.60
2016,06,28,06,45,16.70
2016,06,28,06,46,16.70
2016,06,28,06,47,16.70
2016,06,28,06,48,16.70
2016,06,28,06,49,16.80
2016,06,28,06,50,16.80
2016,06,28,06,51,16.80
2016,06,28,06,52,16.80
2016,06,28,06,53,16.80
2016,06,28,06,54,16.90
2016,06,28,06,55,16.90
2016,06,28,06,56,16.90
2016,06,28,06,57,16.90
2016,06,28,06,58,16.90
2016,06,28,06,59,16.90
2016,06,28,07,00,16.90
2016,06,28,07,01,17.00
2016,06,28,07,02,17.00
2016,06,28,07,03,17.00
2016,06,28,07,04,17.00
2016,06,28,07,05,17.00
2016,06,28,07,06,17.10
2016,06,28,07,07,17.10
2016,06,28,07,08,17.10
2016,06,28,07,09,17.10
2016,06,28,07,10,17.10
2016,06,28,07,11,17.10
2016,06,28,07,12,17.10
2016,06,28,07,13,17.10
2016,06,28,07,14,17.10
2016,06,28,07,15,17.10
2016,06,28,07,16,17.10
2016,06,28,07,17,17.10
2016,06,28,07,18,17.10
2016,06,28,07,19,17.10
2016,06,28,07,20,17.20
2016,06,28,07,21,17.20
2016,06,28,07,22,17.20
2016,06,28,07,23,17.30
2016,06,28,07,24,17.40
2016,06,28,07,25,17.40
2016,06,28,07,26,17.50
2016,06,28,07,27,17.60
2016,06,28,07,28,17.60
2016,06,28,07,29,17.60
2016,06,28,07,30,17.60
2016,06,28,07,31,17.60
2016,06,28,07,32,17.50
2016,06,28,07,33,17.50
2016,06,28,07,34,17.50
2016,06,28,07,35,17.40
2016,06,28,07,36,17.40
2016,06,28,07,37,17.40
2016,06,28,07,38,17.40
2016,06,28,07,39,17.40
2016,06,28,07,40,17.40
2016,06,28,07,41,17.50
2016,06,28,07,42,17.50
2016,06,28,07,43,17.60
2016,06,28,07,44,17.60
2016,06,28,07,45,17.70
2016,06,28,07,46,17.70
2016,06,28,07,47,17.80
2016,06,28,07,48,17.80
2016,06,28,07,49,17.90
2016,06,28,07,50,17.90
2016,06,28,07,51,18.00
2016,06,28,07,52,18.00
2016,06,28,07,53,18.10
2016,06,28,07,54,18.00
2016,06,28,07,55,18.00
2016,06,28,07,56,18.00
2016,06,28,07,57,18.00
2016,06,28,07,58,18.00
2016,06,28,07,59,17.90
2016,06,28,08,00,18.00
2016,06,28,08,01,18.00
2016,06,28,08,02,18.10
2016,06,28,08,03,18.10
2016,06,28,08,04,18.10
2016,06,28,08,05,18.10
2016,06,28,08,06,18.10
2016,06,28,08,07,18.10
2016,06,28,08,08,18.10
2016,06,28,08,09,18.10
2016,06,28,08,10,18.10
2016,06,28,08,11,18.10
2016,06,28,08,12,18.20
2016,06,28,08,13,18.20
2016,06,28,08,14,18.20
2016,06,28,08,15,18.10
2016,06,28,08,16,18.10
2016,06,28,08,17,18.10
2016,06,28,08,18,18.00
2016,06,28,08,19,18.00
2016,06,28,08,20,17.90
2016,06,28,08,21,17.90
2016,06,28,08,22,17.90
2016,06,28,08,23,17.80
2016,06,28,08,24,17.80
2016,06,28,08,25,17.80
2016,06,28,08,26,17.80
2016,06,28,08,27,17.80
2016,06,28,08,28,17.80
2016,06,28,08,29,17.80
2016,06,28,08,30,17.80
2016,06,28,08,31,17.80
2016,06,28,08,32,17.80
2016,06,28,08,33,17.80
2016,06,28,08,34,17.80
2016,06,28,08,35,17.90
2016,06,28,08,36,17.90
2016,06,28,08,37,17.90
2016,06,28,08,38,17.90
2016,06,28,08,39,17.90
2016,06,28,08,40,17.90
2016,06,28,08,41,17.90
2016,06,28,08,42,17.90
2016,06,28,08,43,17.90
2016,06,28,08,44,17.90
2016,06,28,08,45,18.00
2016,06,28,08,46,18.10
2016,06,28,08,47,18.20
2016,06,28,08,48,18.30
2016,06,28,08,49,18.40
2016,06,28,08,50,18.50
2016,06,28,08,51,18.60
2016,06,28,08,52,18.60
2016,06,28,08,53,18.70
2016,06,28,08,54,18.70
2016,06,28,08,55,18.60
2016,06,28,08,56,18.50
2016,06,28,08,57,18.40
2016,06,28,08,58,18.30
2016,06,28,08,59,18.20
2016,06,28,09,00,18.20
2016,06,28,09,01,18.20
2016,06,28,09,02,18.20
2016,06,28,09,03,18.10
2016,06,28,09,04,18.10
2016,06,28,09,05,18.10
2016,06,28,09,06,18.20
2016,06,28,09,07,18.20
2016,06,28,09,08,18.30
2016,06,28,09,09,18.40
2016,06,28,09,10,18.40
2016,06,28,09,11,18.50
2016,06,28,09,12,18.50
2016,06,28,09,13,18.50
2016,06,28,09,14,18.50
2016,06,28,09,15,18.50
2016,06,28,09,16,18.50
2016,06,28,09,17,18.50
2016,06,28,09,18,18.60
2016,06,28,09,19,18.60
2016,06,28,09,20,18.60
2016,06,28,09,21,18.70
2016,06,28,09,22,18.80
2016,06,28,09,23,18.90
2016,06,28,09,24,19.00
2016,06,28,09,25,19.00
2016,06,28,09,26,19.00
2016,06,28,09,27,19.00
2016,06,28,09,28,18.90
2016,06,28,09,29,18.80
2016,06,28,09,30,18.70
2016,06,28,09,31,18.60
2016,06,28,09,32,18.50
2016,06,28,09,33,18.40
2016,06,28,09,34,18.40
2016,06,28,09,35,18.40
2016,06,28,09,36,18.40
2016,06,28,09,37,18.40
2016,06,28,09,38,18.40
2016,06,28,09,39,18.40
2016,06,28,09,40,18.50
2016,06,28,09,41,18.50
2016,06,28,09,42,18.60
2016,06,28,09,43,18.60
2016,06,28,09,44,18.60
2016,06,28,09,45,18.60
2016,06,28,09,46,18.60
2016,06,28,09,47,18.70
2016,06,28,09,48,18.70
2016,06,28,09,49,18.70
2016,06,28,09,50,18.70
2016,06,28,09,51,18.70
2016,06,28,09,52,18.60
2016,06,28,09,53,18.60
2016,06,28,09,54,18.50
2016,06,28,09,55,18.50
2016,06,28,09,56,18.40
2016,06,28,09,57,18.30
2016,06,28,09,58,18.30
2016,06,28,09,59,18.20
2016,06,28,10,00,18.20
2016,06,28,10,01,18.20
2016,06,28,10,02,18.10
2016,06,28,10,03,18.20
2016,06,28,10,04,18.20
2016,06,28,10,05,18.20
2016,06,28,10,06,18.20
2016,06,28,10,07,18.30
2016,06,28,10,08,18.40
2016,06,28,10,09,18.40
2016,06,28,10,10,18.50
2016,06,28,10,11,18.50
2016,06,28,10,12,18.60
2016,06,28,10,13,18.60
2016,06,28,10,14,18.60
2016,06,28,10,15,18.60
2016,06,28,10,16,18.50
2016,06,28,10,17,18.50
2016,06,28,10,18,18.40
2016,06,28,10,19,18.40
2016,06,28,10,20,18.40
2016,06,28,10,21,18.40
2016,06,28,10,22,18.40
2016,06,28,10,23,18.40
2016,06,28,10,24,18.40
2016,06,28,10,25,18.40
2016,06,28,10,26,18.40
2016,06,28,10,27,18.50
2016,06,28,10,28,18.60
2016,06,28,10,29,18.60
2016,06,28,10,30,18.60
2016,06,28,10,31,18.60
2016,06,28,10,32,18.50
2016,06,28,10,33,18.50
2016,06,28,10,34,18.50
2016,06,28,10,35,18.60
2016,06,28,10,36,18.60
2016,06,28,10,37,18.60
2016,06,28,10,38,18.70
2016,06,28,10,39,18.70
2016,06,28,10,40,18.80
2016,06,28,10,41,18.90
2016,06,28,10,42,18.90
2016,06,28,10,43,18.90
2016,06,28,10,44,18.90
2016,06,28,10,45,18.80
2016,06,28,10,46,18.80
2016,06,28,10,47,18.70
2016,06,28,10,48,18.60
2016,06,28,10,49,18.50
2016,06,28,10,50,18.50
2016,06,28,10,51,18.40
2016,06,28,10,52,18.50
2016,06,28,10,53,18.50
2016,06,28,10,54,18.60
2016,06,28,10,55,18.60
2016,06,28,10,56,18.60
2016,06,28,10,57,18.70
2016,06,28,10,58,18.70
2016,06,28,10,59,18.70
2016,06,28,11,00,18.80
2016,06,28,11,01,18.80
2016,06,28,11,02,18.90
2016,06,28,11,03,19.00
2016,06,28,11,04,19.10
2016,06,28,11,05,19.10
2016,06,28,11,06,19.20
2016,06,28,11,07,19.30
2016,06,28,11,08,19.40
2016,06,28,11,09,19.40
2016,06,28,11,10,19.50
2016,06,28,11,11,19.60
2016,06,28,11,12,19.60
2016,06,28,11,13,19.70
2016,06,28,11,14,19.70
2016,06,28,11,15,19.80
2016,06,28,11,16,19.80
2016,06,28,11,17,19.90
2016,06,28,11,18,19.90
2016,06,28,11,19,20.00
2016,06,28,11,20,20.10
2016,06,28,11,21,20.10
2016,06,28,11,22,20.10
2016,06,28,11,23,20.10
2016,06,28,11,24,20.10
2016,06,28,11,25,20.10
2016,06,28,11,26,20.20
2016,06,28,11,27,20.20
2016,06,28,11,28,20.20
2016,06,28,11,29,20.20
2016,06,28,11,30,20.20
2016,06,28,11,31,20.20
2016,06,28,11,32,20.20
2016,06,28,11,33,20.20
2016,06,28,11,34,20.20
2016,06,28,11,35,20.30
2016,06,28,11,36,20.40
2016,06,28,11,37,20.40
2016,06,28,11,38,20.50
2016,06,28,11,39,20.50
2016,06,28,11,40,20.50
2016,06,28,11,41,20.50
2016,06,28,11,42,20.40
2016,06,28,11,43,20.30
2016,06,28,11,44,20.30
2016,06,28,11,45,20.30
2016,06,28,11,46,20.30
2016,06,28,11,47,20.40
2016,06,28,11,48,20.50
2016,06,28,11,49,20.60
2016,06,28,11,50,20.70
2016,06,28,11,51,20.80
2016,06,28,11,52,20.80
2016,06,28,11,53,20.90
2016,06,28,11,54,20.90
2016,06,28,11,55,20.90
2016,06,28,11,56,20.90
2016,06,28,11,57,20.80
2016,06,28,11,58,20.60
2016,06,28,11,59,20.60
2016,06,28,12,00,20.50
2016,06,28,12,01,20.50
2016,06,28,12,02,20.40
2016,06,28,12,03,20.40
2016,06,28,12,04,20.40
2016,06,28,12,05,20.40
2016,06,28,12,06,20.50
2016,06,28,12,07,20.50
2016,06,28,12,08,20.60
2016,06,28,12,09,20.60
2016,06,28,12,10,20.70
2016,06,28,12,11,20.60
2016,06,28,12,12,20.60
2016,06,28,12,13,20.60
2016,06,28,12,14,20.60
2016,06,28,12,15,20.60
2016,06,28,12,16,20.50
2016,06,28,12,17,20.50
2016,06,28,12,18,20.50
2016,06,28,12,19,20.50
2016,06,28,12,20,20.50
2016,06,28,12,21,20.50
2016,06,28,12,22,20.50
2016,06,28,12,23,20.50
2016,06,28,12,24,20.50
2016,06,28,12,25,20.40
2016,06,28,12,26,20.30
2016,06,28,12,27,20.20
2016,06,28,12,28,20.20
2016,06,28,12,29,20.20
2016,06,28,12,30,20.30
2016,06,28,12,31,20.30
2016,06,28,12,32,20.40
2016,06,28,12,33,20.40
2016,06,28,12,34,20.40
2016,06,28,12,35,20.50
2016,06,28,12,36,20.50
2016,06,28,12,37,20.60
2016,06,28,12,38,20.70
2016,06,28,12,39,20.80
2016,06,28,12,40,20.80
2016,06,28,12,41,20.90
2016,06,28,12,42,20.90
2016,06,28,12,43,21.00
2016,06,28,12,44,21.10
2016,06,28,12,45,21.00
2016,06,28,12,46,21.00
2016,06,28,12,47,21.00
2016,06,28,12,48,21.00
2016,06,28,12,49,20.90
2016,06,28,12,50,21.00
2016,06,28,12,51,21.10
2016,06,28,12,52,21.20
2016,06,28,12,53,21.30
2016,06,28,12,54,21.50
2016,06,28,12,55,21.60
2016,06,28,12,56,21.70
2016,06,28,12,57,21.70
2016,06,28,12,58,21.70
2016,06,28,12,59,21.60
2016,06,28,13,00,21.50
2016,06,28,13,01,21.50
2016,06,28,13,02,21.40
2016,06,28,13,03,21.40
2016,06,28,13,04,21.40
2016,06,28,13,05,21.40
2016,06,28,13,06,21.40
2016,06,28,13,07,21.50
2016,06,28,13,08,21.40
2016,06,28,13,09,21.40
2016,06,28,13,10,21.40
2016,06,28,13,11,21.50
2016,06,28,13,12,21.60
2016,06,28,13,13,21.60
2016,06,28,13,14,21.70
2016,06,28,13,15,21.70
2016,06,28,13,16,21.80
2016,06,28,13,17,21.80
2016,06,28,13,18,21.80
2016,06,28,13,19,21.90
2016,06,28,13,20,22.00
2016,06,28,13,21,22.10
2016,06,28,13,22,22.20
2016,06,28,13,23,22.20
2016,06,28,13,24,22.20
2016,06,28,13,25,22.10
2016,06,28,13,26,22.10
2016,06,28,13,27,22.10
2016,06,28,13,28,22.10
2016,06,28,13,29,22.00
2016,06,28,13,30,21.90
2016,06,28,13,31,21.80
2016,06,28,13,32,21.70
2016,06,28,13,33,21.70
2016,06,28,13,34,21.70
2016,06,28,13,35,21.70
2016,06,28,13,36,21.80
2016,06,28,13,37,21.90
2016,06,28,13,38,22.00
2016,06,28,13,39,22.10
2016,06,28,13,40,22.20
2016,06,28,13,41,22.30
2016,06,28,13,42,22.40
2016,06,28,13,43,22.40
2016,06,28,13,44,22.40
2016,06,28,13,45,22.40
2016,06,28,13,46,22.30
2016,06,28,13,47,22.20
2016,06,28,13,48,22.20
2016,06,28,13,49,22.20
2016,06,28,13,50,22.20
2016,06,28,13,51,22.20
2016,06,28,13,52,22.20
2016,06,28,13,53,22.30
2016,06,28,13,54,22.30
2016,06,28,13,55,22.40
2016,06,28,13,56,22.40
2016,06,28,13,57,22.50
2016,06,28,13,58,22.60
2016,06,28,13,59,22.70
2016,06,28,14,00,22.80
2016,06,28,14,01,22.80
2016,06,28,14,02,22.90
2016,06,28,14,03,22.90
2016,06,28,14,04,22.90
2016,06,28,14,05,22.80
2016,06,28,14,06,22.90
2016,06,28,14,07,22.90
2016,06,28,14,08,22.90
2016,06,28,14,09,22.90
2016,06,28,14,10,22.90
2016,06,28,14,11,22.90
2016,06,28,14,12,22.90
2016,06,28,14,13,23.00
2016,06,28,14,14,22.90
2016,06,28,14,15,22.90
2016,06,28,14,16,22.90
2016,06,28,14,17,22.90
2016,06,28,14,18,22.90
2016,06,28,14,19,23.00
2016,06,28,14,20,23.00
2016,06,28,14,21,23.10
2016,06,28,14,22,23.20
2016,06,28,14,23,23.20
2016,06,28,14,24,23.20
2016,06,28,14,25,23.20
2016,06,28,14,26,23.10
2016,06,28,14,27,23.00
2016,06,28,14,28,23.00
2016,06,28,14,29,22.90
2016,06,28,14,30,23.00
2016,06,28,14,31,23.00
2016,06,28,14,32,23.10
2016,06,28,14,33,23.10
2016,06,28,14,34,23.20
2016,06,28,14,35,23.20
2016,06,28,14,36,23.20
2016,06,28,14,37,23.20
2016,06,28,14,38,23.10
2016,06,28,14,39,23.00
2016,06,28,14,40,22.90
2016,06,28,14,41,22.80
2016,06,28,14,42,22.80
2016,06,28,14,43,22.80
2016,06,28,14,44,22.80
2016,06,28,14,45,22.80
2016,06,28,14,46,22.80
2016,06,28,14,47,22.90
2016,06,28,14,48,23.00
2016,06,28,14,49,23.10
2016,06,28,14,50,23.20
2016,06,28,14,51,23.20
2016,06,28,14,52,23.20
2016,06,28,14,53,23.20
2016,06,28,14,54,23.20
2016,06,28,14,55,23.20
2016,06,28,14,56,23.20
2016,06,28,14,57,23.20
2016,06,28,14,58,23.30
2016,06,28,14,59,23.30
2016,06,28,15,00,23.40
2016,06,28,15,01,23.50
2016,06,28,15,02,23.60
2016,06,28,15,03,23.70
2016,06,28,15,04,23.70
2016,06,28,15,05,23.70
2016,06,28,15,06,23.70
2016,06,28,15,07,23.70
2016,06,28,15,08,23.60
2016,06,28,15,09,23.50
2016,06,28,15,10,23.40
2016,06,28,15,11,23.30
2016,06,28,15,12,23.30
2016,06,28,15,13,23.30
2016,06,28,15,14,23.30
2016,06,28,15,15,23.40
2016,06,28,15,16,23.40
2016,06,28,15,17,23.40
2016,06,28,15,18,23.40
2016,06,28,15,19,23.40
2016,06,28,15,20,23.50
2016,06,28,15,21,23.50
2016,06,28,15,22,23.50
2016,06,28,15,23,23.50
2016,06,28,15,24,23.50
2016,06,28,15,25,23.60
2016,06,28,15,26,23.70
2016,06,28,15,27,23.80
2016,06,28,15,28,23.90
2016,06,28,15,29,23.90
2016,06,28,15,30,23.90
2016,06,28,15,31,24.00
2016,06,28,15,32,24.00
2016,06,28,15,33,23.90
2016,06,28,15,34,23.90
2016,06,28,15,35,23.80
2016,06,28,15,36,23.80
2016,06,28,15,37,23.80
2016,06,28,15,38,23.70
2016,06,28,15,39,23.80
2016,06,28,15,40,23.80
2016,06,28,15,41,23.80
2016,06,28,15,42,23.90
2016,06,28,15,43,23.90
2016,06,28,15,44,23.90
2016,06,28,15,45,23.90
2016,06,28,15,46,23.90
2016,06,28,15,47,24.00
2016,06,28,15,48,24.00
2016,06,28,15,49,24.00
2016,06,28,15,50,24.00
2016,06,28,15,51,24.00
2016,06,28,15,52,24.00
2016,06,28,15,53,24.00
2016,06,28,15,54,24.00
2016,06,28,15,55,24.00
2016,06,28,15,56,24.10
2016,06,28,15,57,24.10
2016,06,28,15,58,24.20
2016,06,28,15,59,24.30
2016,06,28,16,00,24.40
2016,06,28,16,01,24.40
2016,06,28,16,02,24.40
2016,06,28,16,03,24.40
2016,06,28,16,04,24.40
2016,06,28,16,05,24.40
2016,06,28,16,06,24.40
2016,06,28,16,07,24.40
2016,06,28,16,08,24.40
2016,06,28,16,09,24.40
2016,06,28,16,10,24.40
2016,06,28,16,11,24.40
2016,06,28,16,12,24.50
2016,06,28,16,13,24.50
2016,06,28,16,14,24.60
2016,06,28,16,15,24.60
2016,06,28,16,16,24.60
2016,06,28,16,17,24.60
2016,06,28,16,18,24.60
2016,06,28,16,19,24.60
2016,06,28,16,20,24.60
2016,06,28,16,21,24.70
2016,06,28,16,22,24.70
2016,06,28,16,23,24.80
2016,06,28,16,24,24.80
2016,06,28,16,25,24.80
2016,06,28,16,26,24.80
2016,06,28,16,27,24.80
2016,06,28,16,28,24.90
2016,06,28,16,29,24.90
2016,06,28,16,30,25.00
2016,06,28,16,31,25.00
2016,06,28,16,32,25.00
2016,06,28,16,33,25.00
2016,06,28,16,34,25.00
2016,06,28,16,35,24.90
2016,06,28,16,36,24.90
2016,06,28,16,37,24.80
2016,06,28,16,38,24.80
2016,06,28,16,39,24.80
2016,06,28,16,40,24.80
2016,06,28,16,41,24.80
2016,06,28,16,42,24.80
2016,06,28,16,43,24.90
2016,06,28,16,44,25.00
2016,06,28,16,45,25.10
2016,06,28,16,46,25.20
2016,06,28,16,47,25.30
2016,06,28,16,48,25.40
2016,06,28,16,49,25.50
2016,06,28,16,50,25.60
2016,06,28,16,51,25.60
2016,06,28,16,52,25.70
2016,06,28,16,53,25.70
2016,06,28,16,54,25.80
2016,06,28,16,55,25.80
2016,06,28,16,56,25.70
2016,06,28,16,57,25.60
2016,06,28,16,58,25.60
2016,06,28,16,59,25.50
2016,06,28,17,00,25.50
2016,06,28,17,01,25.40
2016,06,28,17,02,25.40
2016,06,28,17,03,25.30
2016,06,28,17,04,25.20
2016,06,28,17,05,25.20
2016,06,28,17,06,25.10
2016,06,28,17,07,25.10
2016,06,28,17,08,25.10
2016,06,28,17,09,25.10
2016,06,28,17,10,25.00
2016,06,28,17,11,25.00
2016,06,28,17,12,25.00
2016,06,28,17,13,25.00
2016,06,28,17,14,25.00
2016,06,28,17,15,25.00
2016,06,28,17,16,25.00
2016,06,28,17,17,25.00
2016,06,28,17,18,25.00
2016,06,28,17,19,25.00